Flag Weather past 2 weeks in Cornwall, Ontario, Canada

Now
27 °F

Chilly.


Feels Like: 27 °F
Forecast: 24 / 29 °F
Wind: 2 mph from Northwest

Location: St Anicet

Current Time: Nov 27, 2014 at 11:15:17 PM

Latest Report: Nov 27, 2014 at 10:00 PM


Visibility: N/A

Pressure: 30.07 "Hg

Humidity: 76%

Dew point: 20 °F

Location of CornwallLocation

Historic Weather in Cornwall — Graph

°F

Cornwall temperature yesterday

Maximum temperature yesterday: 36 °F (at 2:00 AM)
Minimum temperature yesterday: 30 °F (at 5:00 PM)
Average temperature yesterday: 32 °F

Past Weeks' High & Low Weather Summary

 TemperatureHumidityPressure
High70 °F (Nov 24, 2:00 PM)100% (Nov 17, 8:00 AM)30.37 "Hg (Nov 17, 8:00 AM)
Low18 °F (Nov 21, 7:00 PM)38% (Nov 22, 1:00 PM)29.26 "Hg (Nov 24, 4:00 PM)
Average33 °F74%29.94 "Hg
* Reported Nov 12 9:00 PM — Nov 27 9:00 PM, Cornwall, Weather by CustomWeather, © 2014

Note: Actual official high and low records may vary slightly from our data, if they occured in-between our weather recording intervals... More about our weather records

Advertising

Cornwall weather history for previous 24 hours

 ConditionsComfort  
Time TempWeatherWind HumidityBarometerVisibility
9:00 PM
Nov 27
27 °FChilly.3 mph75%30.07 "HgN/A
8:00 PM27 °FChilly.3 mph74%30.06 "HgN/A
7:00 PM28 °FChilly.5 mph70%30.06 "HgN/A
6:00 PM28 °FChilly.3 mph70%30.06 "HgN/A
5:00 PM31 °FChilly.5 mph63%30.06 "HgN/A
4:00 PM30 °FChilly.3 mph63%30.05 "HgN/A
3:00 PM30 °FChilly.5 mph62%30.05 "HgN/A
2:00 PM30 °FChilly.5 mph61%30.04 "HgN/A
1:00 PM30 °FChilly.5 mph62%30.04 "HgN/A
12:00 PM30 °FChilly.5 mph61%30.05 "HgN/A
11:00 AM31 °FChilly.3 mph64%30.06 "HgN/A
10:00 AM30 °FChilly.3 mph66%30.06 "HgN/A
9:00 AM29 °FChilly.3 mph70%30.05 "HgN/A
8:00 AM29 °FChilly.5 mph73%30.04 "HgN/A
7:00 AM30 °FChilly.5 mph67%30.02 "HgN/A
6:00 AM30 °FChilly.5 mph69%30.02 "HgN/A
5:00 AM30 °FChilly.7 mph70%30.01 "HgN/A
4:00 AM30 °FChilly.6 mph71%30.02 "HgN/A
3:00 AM31 °FChilly.8 mph70%30.02 "HgN/A
2:00 AM31 °FChilly.8 mph70%30.03 "HgN/A
1:00 AM31 °FChilly.9 mph69%30.01 "HgN/A
12:00 AM31 °FChilly.8 mph70%30.03 "HgN/A
11:00 PM
Nov 26
31 °FChilly.9 mph69%30.04 "HgN/A
Weather by CustomWeather, © 2014

See weather overviewHow to use our weather pages